SENTINEL-3B (43437 NORAD) Tracking and Keplerian Element Data

This shows tracking and keplerian element data for the satellite.

Feedback or suggestion? Click here.




ElementValue
Catalog43437
NameSENTINEL-3B
Epoch Orbit4667
Epoch Day78.13695099
Epoch Year2019
RAAN146.3676
Inclination98.628
Eccentricity0.0001703
Argument of Perigee95.9919
Mean Anonmoly264.1455
Mean Motion14.26735084
Decay Rate-9E-08
L11 43437U 18039A 19078.13695099 -.00000009 00000-0 14411-4 0 9994
L22 43437 98.6280 146.3676 0001703 95.9919 264.1455 14.26735084 46672

Live tracking and technical data element details for SENTINEL-3B (NORAD 43437). SENTINEL-3B can be tracked NOW for your location showing map with azimuth and elevation plus other details from your city location.

Track the satellite on the map from your city or location and see movement details for azimuth, elevation, latitude, longitude, range, height, and movement on the map or in text.







IsCatalogInMostPopularTable: catalog: 43437, numindb: 218
Update: records affected: 1



GetName: 43437 SENTINEL-3B

Hit Count: updated at: Thu, 21 Mar 2019 02:16:23 GMT